RADUGA-1 4 [-]

Last updated on June 23, 2019, 3:41 a.m. UTC

1 25642U 99010A   19173.63424637 -.00000104  00000-0  00000+0 0  9999
2 25642  14.6818  23.6765 0004089 277.2494 273.8069  1.00189713 74381
UTC
Height (km)
Latitude
Longitude
Inclination
Orbital Period
UTC large
Height (km)
Speed (km/s)
/
Latitude / Longitude
Inclination (degrees)
Orbital Period (minutes)
Azimuth
Elevation
Range (km)
Doppler Factor
iOS Compass Heading
iOS Angle

Next 30 passes for location: Hong Kong

Rise time Rise Azimuth (degrees) Set time Set Azimuth (degrees) Duration Max altitude (degrees)

No matching passes for this satellites